Weather History for Somerville, NJ

Change the Weather History Date:

Friday, October 17, 2014

  Actual Average Record
Temperature  
Mean Temperature 61 °F -  
Max Temperature 72 °F 65 °F 88 °F (1938)
Min Temperature 51 °F 41 °F 12 °F (1933)
Degree Days  
Heating Degree Days 4    
Growing Degree Days 11 (Base 50)    
Moisture  
Dew Point 51 °F    
Average Humidity 80    
Maximum Humidity 97    
Minimum Humidity 45    
Precipitation  
Precipitation 0.00 in - - ()
Sea Level Pressure  
Sea Level Pressure 29.70 in    
Wind  
Wind Speed 1 mph (SW)    
Max Wind Speed 9 mph    
Max Gust Speed 18 mph    
Visibility 6 miles    
Events Fog    
Averages and records for this station are not official NWS values.
T = Trace of Precipitation, MM = Missing Value Source: NWS Daily Summary

Daily Weather History Graph

Daily Weather History Graph

Search for Another Location

Airport:

Trip Planner

Search our weather history database for the weather conditions in past years. The results will help you decide how hot, cold, wet, or windy it might be!

Date:

Astronomy

Oct. 17, 2014 Rise Set
Actual Time 7:11 AM EDT 6:15 PM EDT
Civil Twilight 6:44 AM EDT 6:43 PM EDT
Nautical Twilight 6:12 AM EDT 7:14 PM EDT
Astronomical Twilight 5:40 AM EDT 7:46 PM EDT
Moon 1:12 AM EDT (10/17) 3:02 PM EDT (10/17)
Length of Visible Light 11h 58m
Length of Day
11h 03m
Waning Crescent, 33% of the Moon is Illuminated
Oct 17
Waning Crescent
Oct 23
New
Oct 30
First Quarter
Nov 6
Full
Nov 14
Last Quarter

Hourly Weather History & Observations

Time (EDT) Temp. Dew Point Humidity Pressure Visibility Wind Dir Wind Speed Gust Speed Precip Events Conditions
12:53 AM 55.9 °F 54.0 °F 93% 29.68 in 6.0 mi Calm Calm - N/A   Overcast
1:53 AM 57.0 °F 54.0 °F 89% 29.68 in 7.0 mi Calm Calm - N/A   Overcast
2:53 AM 55.9 °F 54.0 °F 93% 29.68 in 5.0 mi Calm Calm - N/A   Overcast
3:53 AM 57.0 °F 54.0 °F 89% 29.68 in 7.0 mi Calm Calm - N/A   Overcast
4:53 AM 55.9 °F 54.0 °F 93% 29.69 in 5.0 mi Calm Calm - N/A   Overcast
5:53 AM 55.9 °F 53.1 °F 90% 29.68 in 5.0 mi Calm Calm - N/A   Scattered Clouds
6:00 AM 55.0 °F 53.1 °F 93% 29.68 in 1.5 mi Calm Calm - N/A   Partly Cloudy
6:11 AM 54.0 °F 52.0 °F 93% 29.69 in 1.5 mi Calm Calm - N/A   Partly Cloudy
6:13 AM 54.0 °F 52.0 °F 93% 29.69 in 0.8 mi Calm Calm - N/A   Mist
6:21 AM 53.1 °F 52.0 °F 96% 29.69 in 0.2 mi Calm Calm - N/A Fog Fog
6:28 AM 53.1 °F 51.1 °F 93% 29.69 in 0.8 mi Calm Calm - N/A   Mostly Cloudy
6:42 AM 53.1 °F 51.1 °F 93% 29.69 in 0.2 mi Calm Calm - N/A Fog Fog
6:53 AM 52.0 °F 51.1 °F 97% 29.70 in 0.2 mi Calm Calm - N/A Fog Fog
7:03 AM 52.0 °F 50.0 °F 93% 29.70 in 0.5 mi Calm Calm - N/A Fog Fog
7:10 AM 52.0 °F 50.0 °F 93% 29.70 in 0.2 mi Calm Calm - N/A Fog Fog
7:48 AM 51.8 °F 50.0 °F 94% 29.71 in 0.5 mi Calm Calm - N/A Fog Fog
7:53 AM 52.0 °F 50.0 °F 93% 29.72 in 0.5 mi Calm Calm - N/A Fog Fog
7:57 AM 52.0 °F 50.0 °F 93% 29.72 in 1.5 mi Calm Calm - N/A   Partly Cloudy
8:04 AM 52.0 °F 50.0 °F 93% 29.72 in 2.5 mi Calm Calm - N/A   Clear
8:13 AM 53.1 °F 51.1 °F 93% 29.72 in 3.0 mi Calm Calm - N/A   Clear
8:53 AM 57.0 °F 54.0 °F 89% 29.74 in 7.0 mi Calm Calm - N/A   Clear
9:53 AM 64.0 °F 53.1 °F 67% 29.75 in 10.0 mi Variable 4.6 mph - N/A   Clear
10:53 AM 66.9 °F 51.1 °F 57% 29.74 in 10.0 mi Variable 5.8 mph - N/A   Partly Cloudy
11:53 AM 68.0 °F 51.1 °F 55% 29.73 in 10.0 mi Variable 3.5 mph - N/A   Scattered Clouds
12:53 PM 71.1 °F 50.0 °F 47% 29.71 in 10.0 mi WSW 5.8 mph - N/A   Clear
1:53 PM 71.1 °F 48.9 °F 45% 29.69 in 10.0 mi SSW 9.2 mph 18.4 mph N/A   Scattered Clouds
2:53 PM 70.0 °F 48.9 °F 47% 29.68 in 10.0 mi Variable 4.6 mph - N/A   Partly Cloudy
3:53 PM 71.1 °F 48.9 °F 45% 29.68 in 10.0 mi North - - N/A   Mostly Cloudy
4:53 PM 71.1 °F 50.0 °F 47% 29.67 in 10.0 mi Variable 4.6 mph - N/A   Scattered Clouds
5:53 PM 68.0 °F 50.0 °F 52% 29.66 in 10.0 mi SSW 3.5 mph - N/A   Clear
6:53 PM 63.0 °F 51.1 °F 65% 29.67 in 10.0 mi Calm Calm - N/A   Clear
7:53 PM 62.1 °F 51.1 °F 67% 29.68 in 10.0 mi Variable 3.5 mph - N/A   Clear
8:53 PM 57.0 °F 51.1 °F 81% 29.69 in 10.0 mi Calm Calm - N/A   Clear
9:53 PM 54.0 °F 51.1 °F 90% 29.70 in 10.0 mi Calm Calm - N/A   Clear
10:53 PM 53.1 °F 51.1 °F 93% 29.69 in 9.0 mi Calm Calm - N/A   Mostly Cloudy
11:53 PM 55.0 °F 51.1 °F 86% 29.67 in 10.0 mi Calm Calm - N/A   Overcast